7 * 24
多渠道服务支持
COSMOS 1652是苏联(CIS)于1985年5月17日发射的第一代GLONASS导航卫星,属于格洛纳斯全球卫星导航系统的组网卫星。该卫星运行在平均高度约19100千米、倾角64.8°的中地球轨道,周期11小时15分,采用三轴稳定设计,携带精密铯原子钟,设计寿命5年,为系统提供全球全天候定位、测速与授时服务支撑,是苏联早期推进GLONASS星座建设的重要组成部分。
俄罗斯(独联体)
(CIS)
| 数据来源 | 国际轨道数据 |
| 星历时间: | 2026-09-11T08:11:09+0800 14小时前 查看轨道信息 |
| 半长轴: | 25510.794km |
| 偏心率: | 0.0018512 |
| 轨道倾角: | 64.928° |
| 近地点辐角 | 28.085° |
| 升交点赤经 | 70.194° |
| 平近点角 | 3.675° |
| 近地点: | 19085.431km |
| 远地点: | 19179.883km |
| 周期: | 675.843分钟 |
| 每日圈数: | 2.130673 |